Weather Roundup
Issued by NWS Corpus Christi, TX

Home | Current Version | Previous Version | Text Only | Print | Product List | Glossary On
Versions: 1 2 3 4 5 6 7 8 9 10 11 12 13 14 15 16 17 18 19 20 21 22 23 24 25 26 27 28 29 30 31 32 33 34 35 36 37 38 39 40 41 42 43 44 45 46 47 48 49 50
000
ASUS44 KCRP 251210
HRRCRP

SOUTH TEXAS REGIONAL WEATHER ROUNDUP
NATIONAL WEATHER SERVICE CORPUS CHRISTI TX
700 AM CDT FRI JUL 25 2014


TXZ229>244-251300-
...CORPUS CHRISTI AREA OBSERVATIONS...

CITY           SKY/WX    TMP DP  RH WIND       PRES   REMARKS
CORPUS CHRISTI PTCLDY    78  74  87 SE6       30.00R
NAS CORPUS CHR PTCLDY    81  78  91 S7        29.99R
ROCKPORT       CLEAR     81  76  84 S3        30.00R
KINGSVILLE NAS PTCLDY    77  77 100 SE6       29.99R FOG
ALICE          CLEAR     75  73  93 SE3       29.99R
FALFURRIAS     CLEAR     59  59 100 E3        29.98S
$$

...VICTORIA AREA OBSERVATIONS...

CITY           SKY/WX    TMP DP  RH WIND       PRES   REMARKS
VICTORIA       CLEAR     76  74  93 CALM      30.02R FOG
BEEVILLE       FAIR      74  74 100 CALM      30.01R FOG
PLEASANTON     CLEAR     74  72  93 CALM      30.03R FOG
SAN ANTONIO    CLOUDY    78  74  87 S6        30.04R
$$

...LAREDO AREA OBSERVATIONS...

CITY           SKY/WX    TMP DP  RH WIND       PRES   REMARKS
LAREDO         CLEAR     79  73  81 E7        30.01R
COTULLA        CLEAR     75  73  93 E6        30.00R
DEL RIO        CLEAR     76  68  76 E8        30.01R
MCALLEN        CLEAR     79  76  90 SE7       29.98R
HEBBRONVILLE   CLOUDY    75  73  93 E6        30.01R FOG
$$

...OTHER TEXAS OBSERVATIONS...

CITY           SKY/WX    TMP DP  RH WIND       PRES   REMARKS
BROWNSVILLE    CLEAR     77  76  96 SE6       29.98S
HOUSTON        PTCLDY    75  74  96 CALM      30.02R
COL. STATION   CLEAR     75  73  93 S5        30.03R
AUSTIN         MOCLDY    73  71  93 S3        30.03R
WACO           CLEAR     71  69  93 CALM      30.01S
FORT WORTH     PTCLDY    74  70  87 SE5       30.01S
WICHITA FALLS  PTCLDY    71  66  84 SE6       29.98S
LUBBOCK        PTCLDY    75  60  59 SW12      30.10R
EL PASO        PTCLDY    73  54  51 CALM      30.11R
$$

...MARINE OBSERVATIONS...

STATION/POSITION TIME  SKY/WX   TEMP    WIND        PRES    VSBY  WAVE   SWELL
                                AIR SEA DIR/SP/G                  HT/PER HT/PER
                 (UTC)          (F)     (DEG/KT/KT) (MB)    (MI)  (FT/S) (FT/S)
PORT ARANSAS     1200            82 85  180/  8/  9 1016.2R
BUOY 90 E PORT A 1200            83 83  210/  8/ 10 1016.4R         1/ 3
BUOY 45 SE BAFFI 1200            81 80  200/  6/  6 1015.5R         2/ 4   2/ 5
BUOY 200 E PT IS 1200            83 85  190/  8/ 10 1016.1R         1/ 8   2/ 8
BUOY 15 E GALVES NOT AVBL
$$


USA.gov is the U.S. government's official web portal to all federal, state and local government web resources and services.